TimeEST,TemperatureF,Dew PointF,Humidity,Sea Level PressureIn,VisibilityMPH,Wind Direction,Wind SpeedMPH,Gust SpeedMPH,PrecipitationIn,Events,Conditions,WindDirDegrees,DateUTC
12:15 AM,30.2,19.4,64,29.19,10.0,West,13.8,-,N/A,,Overcast,270,2012-11-25 05:15:00
12:35 AM,30.2,19.4,64,29.19,10.0,West,17.3,21.9,N/A,,Overcast,270,2012-11-25 05:35:00
12:55 AM,28.4,19.4,69,29.19,10.0,West,13.8,21.9,N/A,,Overcast,270,2012-11-25 05:55:00
1:15 AM,28.4,19.4,69,29.19,10.0,West,15.0,-,N/A,,Overcast,260,2012-11-25 06:15:00
1:35 AM,28.4,19.4,69,29.19,10.0,West,15.0,21.9,N/A,,Overcast,270,2012-11-25 06:35:00
1:55 AM,28.4,19.4,69,29.19,10.0,West,15.0,20.7,N/A,,Overcast,270,2012-11-25 06:55:00
2:15 AM,28.4,19.4,69,29.19,10.0,West,13.8,19.6,N/A,,Overcast,270,2012-11-25 07:15:00
2:35 AM,28.4,19.4,69,29.18,10.0,West,16.1,23.0,N/A,,Overcast,270,2012-11-25 07:35:00
2:55 AM,28.4,19.4,69,29.19,10.0,West,13.8,20.7,N/A,,Overcast,260,2012-11-25 07:55:00
3:15 AM,28.4,17.6,64,29.18,10.0,West,16.1,21.9,N/A,,Overcast,270,2012-11-25 08:15:00
3:35 AM,28.4,17.6,64,29.19,10.0,West,15.0,23.0,N/A,,Overcast,260,2012-11-25 08:35:00
3:55 AM,28.4,17.6,64,29.19,10.0,West,17.3,25.3,N/A,,Overcast,270,2012-11-25 08:55:00
4:15 AM,28.4,17.6,64,29.19,10.0,West,13.8,23.0,N/A,,Overcast,260,2012-11-25 09:15:00
4:55 AM,28.4,15.8,59,29.20,10.0,West,16.1,21.9,N/A,,Overcast,270,2012-11-25 09:55:00
5:15 AM,28.4,14.0,55,29.21,10.0,West,15.0,24.2,N/A,,Overcast,260,2012-11-25 10:15:00
5:35 AM,26.6,12.2,55,29.21,10.0,West,11.5,16.1,N/A,,Overcast,260,2012-11-25 10:35:00
5:55 AM,26.6,14.0,59,29.21,10.0,West,10.4,21.9,N/A,,Overcast,270,2012-11-25 10:55:00
6:15 AM,26.6,12.2,55,29.21,10.0,West,18.4,24.2,N/A,,Overcast,270,2012-11-25 11:15:00
6:55 AM,26.6,12.2,55,29.22,10.0,West,13.8,21.9,N/A,,Overcast,280,2012-11-25 11:55:00
7:15 AM,26.6,12.2,55,29.22,10.0,West,16.1,20.7,N/A,,Overcast,270,2012-11-25 12:15:00
7:35 AM,26.6,12.2,55,29.23,10.0,WSW,12.7,23.0,N/A,,Overcast,250,2012-11-25 12:35:00
7:55 AM,26.6,12.2,55,29.23,10.0,West,16.1,26.5,N/A,,Overcast,270,2012-11-25 12:55:00
8:15 AM,26.6,12.2,55,29.23,10.0,West,13.8,25.3,N/A,,Overcast,270,2012-11-25 13:15:00
8:35 AM,26.6,10.4,51,29.23,10.0,West,15.0,24.2,N/A,,Overcast,260,2012-11-25 13:35:00
8:55 AM,26.6,10.4,51,29.24,10.0,West,21.9,27.6,N/A,,Overcast,270,2012-11-25 13:55:00
9:15 AM,26.6,10.4,51,29.24,10.0,West,16.1,28.8,N/A,,Overcast,270,2012-11-25 14:15:00
9:35 AM,28.4,10.4,47,29.24,10.0,West,21.9,29.9,N/A,,Overcast,270,2012-11-25 14:35:00
9:55 AM,28.4,10.4,47,29.25,10.0,West,17.3,26.5,N/A,,Overcast,270,2012-11-25 14:55:00
10:15 AM,28.4,10.4,47,29.25,10.0,West,15.0,28.8,N/A,,Overcast,270,2012-11-25 15:15:00
10:35 AM,28.4,10.4,47,29.25,10.0,West,21.9,32.2,N/A,,Overcast,260,2012-11-25 15:35:00
10:55 AM,28.4,12.2,51,29.24,10.0,West,20.7,32.2,N/A,,Overcast,260,2012-11-25 15:55:00
11:15 AM,28.4,10.4,47,29.24,10.0,West,19.6,31.1,N/A,,Overcast,280,2012-11-25 16:15:00
11:35 AM,28.4,12.2,51,29.25,10.0,West,17.3,27.6,N/A,,Overcast,280,2012-11-25 16:35:00
11:55 AM,28.4,12.2,51,29.24,10.0,West,18.4,28.8,N/A,,Overcast,270,2012-11-25 16:55:00
12:15 PM,28.4,10.4,47,29.24,10.0,West,17.3,29.9,N/A,,Overcast,270,2012-11-25 17:15:00
12:35 PM,28.4,10.4,47,29.23,10.0,West,19.6,31.1,N/A,,Overcast,260,2012-11-25 17:35:00
12:55 PM,28.4,10.4,47,29.24,10.0,West,21.9,32.2,N/A,,Overcast,270,2012-11-25 17:55:00
1:15 PM,30.2,10.4,44,29.25,10.0,West,21.9,32.2,N/A,,Mostly Cloudy,260,2012-11-25 18:15:00
1:35 PM,30.2,10.4,44,29.25,10.0,West,20.7,31.1,N/A,,Overcast,270,2012-11-25 18:35:00
1:55 PM,30.2,10.4,44,29.25,10.0,West,23.0,32.2,N/A,,Mostly Cloudy,260,2012-11-25 18:55:00
2:35 PM,28.4,10.4,47,29.27,10.0,WSW,20.7,27.6,N/A,,Unknown,250,2012-11-25 19:35:00
2:55 PM,28.4,10.4,47,29.28,10.0,WSW,15.0,33.4,N/A,,Overcast,250,2012-11-25 19:55:00
3:15 PM,28.4,10.4,47,29.30,10.0,West,19.6,28.8,N/A,,Overcast,260,2012-11-25 20:15:00
3:35 PM,28.4,8.6,43,29.30,10.0,West,17.3,29.9,N/A,,Overcast,260,2012-11-25 20:35:00
3:55 PM,26.6,8.6,47,29.31,10.0,WSW,13.8,31.1,N/A,,Overcast,250,2012-11-25 20:55:00
4:15 PM,26.6,8.6,47,29.32,10.0,WSW,9.2,33.4,N/A,,Overcast,250,2012-11-25 21:15:00
4:35 PM,26.6,8.6,47,29.33,10.0,West,16.1,27.6,N/A,,Overcast,260,2012-11-25 21:35:00
4:55 PM,26.6,8.6,47,29.33,10.0,West,25.3,32.2,N/A,,Scattered Clouds,270,2012-11-25 21:55:00
5:15 PM,24.8,8.6,50,29.34,10.0,West,16.1,32.2,N/A,,Clear,260,2012-11-25 22:15:00
5:35 PM,24.8,8.6,50,29.35,10.0,West,20.7,33.4,N/A,,Clear,270,2012-11-25 22:35:00
5:55 PM,24.8,8.6,50,29.36,10.0,West,23.0,34.5,N/A,,Clear,260,2012-11-25 22:55:00
6:15 PM,24.8,8.6,50,29.37,10.0,West,16.1,28.8,N/A,,Clear,260,2012-11-25 23:15:00
6:35 PM,24.8,8.6,50,29.37,10.0,West,17.3,28.8,N/A,,Clear,260,2012-11-25 23:35:00
6:55 PM,24.8,8.6,50,29.37,10.0,West,16.1,29.9,N/A,,Clear,260,2012-11-25 23:55:00
7:15 PM,24.8,8.6,50,29.38,10.0,West,21.9,26.5,N/A,,Clear,260,2012-11-26 00:15:00
7:35 PM,24.8,8.6,50,29.39,10.0,West,20.7,26.5,N/A,,Clear,270,2012-11-26 00:35:00
7:55 PM,24.8,8.6,50,29.39,10.0,West,18.4,26.5,N/A,,Clear,260,2012-11-26 00:55:00
8:15 PM,24.8,8.6,50,29.40,10.0,West,19.6,27.6,N/A,,Clear,270,2012-11-26 01:15:00
8:35 PM,24.8,8.6,50,29.40,10.0,West,19.6,26.5,N/A,,Clear,270,2012-11-26 01:35:00
8:55 PM,24.8,8.6,50,29.41,10.0,West,15.0,27.6,N/A,,Clear,270,2012-11-26 01:55:00
9:15 PM,24.8,8.6,50,29.41,10.0,West,12.7,23.0,N/A,,Clear,260,2012-11-26 02:15:00
9:35 PM,24.8,8.6,50,29.42,10.0,West,9.2,20.7,N/A,,Partly Cloudy,260,2012-11-26 02:35:00
9:55 PM,24.8,8.6,50,29.42,10.0,West,12.7,18.4,N/A,,Mostly Cloudy,260,2012-11-26 02:55:00
10:15 PM,24.8,8.6,50,29.42,10.0,WSW,10.4,-,N/A,,Mostly Cloudy,250,2012-11-26 03:15:00
10:35 PM,24.8,8.6,50,29.43,10.0,West,11.5,17.3,N/A,,Overcast,260,2012-11-26 03:35:00
10:55 PM,24.8,8.6,50,29.43,10.0,West,13.8,18.4,N/A,,Overcast,260,2012-11-26 03:55:00
11:15 PM,24.8,8.6,50,29.44,10.0,West,16.1,23.0,N/A,,Overcast,260,2012-11-26 04:15:00
11:35 PM,24.8,8.6,50,29.45,10.0,West,10.4,17.3,N/A,,Overcast,260,2012-11-26 04:35:00
11:55 PM,24.8,8.6,50,29.45,10.0,West,10.4,16.1,N/A,,Overcast,260,2012-11-26 04:55:00